[[{"header":{"parameterUnit":"m.s-1","parameterCategory":1,"la1":30.2991,"la2":30.254,"lo1":-89.0895,"lo2":-89.0444,"dy":0.0017,"dx":0.0017,"nx":28,"ny":28,"refTime":"2023-03-27T15:00:00:Z","depth":0,"parameterNumber":2,"parameterNumberName":"U-component_of_WINDS"},"data":[0,0,0,0,0,0,0,0,0,0,0,0,0,0,0,0,0,0,0,0,0,0,0,0,0,0,0,0,0,0,0,0,0,0,0,0,0,0,0,0,0,0,0,0,0,0,0,0,0,0,0,0,0,0,0,0,0,0,0.7251,0.7251,0,0.7257,0.7257,0.7257,0.7245,0.7245,0.7244,0.7244,0.7252,0.7252,0.7253,0,0,0,0,0,0,0,0,0,0,0,0,0,0.7231,0.7231,0.7251,0.7251,0.7251,0.7257,0.7257,0.7257,0.7245,0.7245,0.7244,0.7244,0.7252,0.7252,0.7253,0,0,0,0,0,0,0,0,0,0,0,0,0,0.7239,0.7232,0.7251,0.7246,0.7246,0.7257,0.7257,0.7257,0.7245,0.7245,0.7244,0.7244,0.7251,0.7252,0.7253,0.727,0,0,0.7256,0.7256,0,0,0,0,0,0,0,0,0.7238,0.7239,0.7247,0.7246,0.7246,0.725,0.7253,0.7262,0.7245,0.7245,0.7244,0.7243,0.7252,0.7253,0.7255,0.7271,0.7271,0.7256,0.7256,0.7257,0.7257,0,0,0,0,0,0,0,0.7238,0.7239,0.7254,0.7247,0.7246,0.7244,0.7244,0.7255,0.7252,0.7245,0.7245,0.7245,0.7251,0.7254,0.7255,0.7271,0.7256,0.7257,0.7257,0.7257,0.7301,0.7302,0,0,0,0,0,0,0.7238,0.7239,0.7253,0.7254,0.724,0.7245,0.7245,0.7249,0.7252,0.7252,0.7246,0.7245,0.7253,0.7254,0.7255,0.7275,0.7257,0.7258,0.7258,0.7301,0.7301,0.7302,0,0,0,0,0,0,0.7237,0.7239,0.7253,0.7246,0.7248,0.7246,0.725,0.725,0.7252,0.7252,0.7252,0.7249,0.7253,0.7254,0.7267,0.7276,0.7258,0.7259,0.73,0.7301,0.7302,0.7316,0,0,0,0,0,0,0.7237,0.7239,0.7245,0.7246,0.7248,0.7264,0.7251,0.725,0.7254,0.7252,0.7255,0.7255,0.7252,0.7265,0.7267,0.7276,0.7259,0.7299,0.73,0.7301,0.7315,0.7317,0.732,0,0,0,0,0,0.7236,0.725,0.7246,0.7247,0.7256,0.7264,0.7265,0.7262,0.7254,0.7261,0.7261,0.7255,0.7274,0.7267,0.7269,0.7278,0.7299,0.73,0.7301,0.7314,0.7317,0.732,0,0,0,0,0,0,0.725,0.725,0.7245,0.7259,0.7262,0.7262,0.727,0.7265,0.727,0.7269,0.7265,0.7265,0.7279,0.728,0.7271,0.7295,0.7285,0.7287,0.7294,0.7297,0.7299,0.7299,0.726,0,0,0,0,0,0.7255,0.7262,0.7261,0.7273,0.7275,0.7272,0.7276,0.7273,0.7276,0.7277,0.7278,0.7281,0.7288,0.7292,0.7299,0.7315,0.7315,0.7323,0.7325,0.7327,0.7329,0.7337,0.734,0.7307,0.7307,0.7307,0,0,0.7265,0.7265,0.727,0.7276,0.7278,0.7285,0.7273,0.7282,0.7287,0.7278,0.729,0.729,0.7294,0.7308,0.7315,0.731,0.7338,0.7329,0.733,0.7331,0.7339,0.7342,0.7345,0.7308,0.7308,0.7308,0,0,0.7286,0.7287,0.7298,0.73,0.7302,0.73,0.7303,0.7304,0.7304,0.7315,0.7308,0.7315,0.7327,0.733,0.7333,0.7355,0.735,0.7357,0.737,0.7378,0.7381,0.7383,0.7391,0.7394,0.7359,0.7359,0.7359,0,0.7298,0.7309,0.7304,0.7312,0.7315,0.7307,0.7318,0.732,0.7324,0.7327,0.7321,0.7336,0.7337,0.7352,0.7357,0.736,0.7363,0.7357,0.7381,0.7383,0.7385,0.7392,0.7395,0.736,0.736,0.736,0.736,0,0.7323,0.7331,0.7339,0.7343,0.7347,0.7356,0.7353,0.7358,0.7354,0.7353,0.7365,0.7367,0.7373,0.7376,0.7373,0.7391,0.7387,0.7381,0.7371,0.7389,0.7396,0.7399,0.7361,0.7361,0.7361,0.736,0,0,0.7354,0.7355,0.7358,0.7359,0.7361,0.7367,0.7377,0.7382,0.7386,0.739,0.7397,0.7407,0.7402,0.7405,0.7402,0.7409,0.7427,0.7402,0.7402,0.7407,0.7445,0.745,0.7453,0.7423,0.7424,0.7424,0.7445,0,0.7375,0.739,0.7386,0.7401,0.7408,0.74,0.7408,0.7411,0.741,0.7416,0.7416,0.7423,0.7415,0.7416,0.7423,0.7423,0.7434,0.7422,0.7431,0.7431,0.743,0.7457,0.7461,0.7481,0.7448,0.7448,0.7448,0,0.7401,0.7405,0.7421,0.7422,0.7424,0.7432,0.7436,0.7442,0.7445,0.7444,0.7447,0.7443,0.7452,0.7442,0.7455,0.7447,0.745,0.7451,0.7451,0.7452,0.7441,0.7458,0.7487,0.749,0.7453,0.7452,0.7452,0,0.7421,0.7431,0.7441,0.7443,0.7444,0.7449,0.745,0.7452,0.7456,0.746,0.7462,0.7468,0.7471,0.7476,0.7473,0.7466,0.7487,0.7476,0.7486,0.7486,0.7491,0.7491,0.7521,0.7494,0.7493,0.7493,0.7493,0,0.7445,0.7455,0.745,0.7457,0.7468,0.7463,0.7475,0.7475,0.7476,0.7483,0.7477,0.7483,0.748,0.7486,0.7484,0.7495,0.7497,0.7496,0.7496,0.7497,0.7497,0.7499,0.7497,0.7494,0.7494,0.7494,0.7494,0,0.7469,0.7466,0.7477,0.7477,0.7478,0.7486,0.7486,0.7493,0.7491,0.75,0.7502,0.75,0.7507,0.7505,0.7513,0.7511,0.7525,0.7523,0.7524,0.7524,0.7533,0.7532,0.7566,0.757,0.754,0.7541,0.7541,0,0.7484,0.7491,0.7492,0.7496,0.7497,0.7503,0.7507,0.7503,0.7507,0.751,0.7516,0.7523,0.7527,0.7539,0.7539,0.7545,0.7543,0.7554,0.7543,0.7544,0.7542,0.7542,0.7542,0.7556,0.7556,0.7557,0.7557,0,0.751,0.7509,0.7514,0.7518,0.7523,0.7526,0.7529,0.7533,0.7529,0.7534,0.7541,0.7545,0.7552,0.7559,0.7564,0.7565,0.7561,0.756,0.7563,0.7564,0.7564,0.7564,0.753,0.7559,0.7559,0.7559,0.7559,0.7559,0.753,0.7536,0.7538,0.7544,0.7546,0.7549,0.7554,0.7554,0.7559,0.7565,0.7563,0.757,0.7573,0.7579,0.7581,0.7588,0.7583,0.7587,0.7588,0.7589,0.759,0.7563,0.7589,0.7589,0.7589,0.7589,0.7589,0,0.7556,0.7557,0.7562,0.7567,0.7571,0.7566,0.7569,0.7574,0.758,0.7583,0.7588,0.7596,0.7602,0.7602,0.7608,0.7613,0.7611,0.7615,0.7614,0.7615,0.7594,0.7591,0.7616,0.7616,0.7616,0.7616,0.7616,0.7616,0.757,0.758,0.7579,0.759,0.7591,0.7598,0.76,0.7603,0.7605,0.7614,0.7619,0.7619,0.7621,0.7627,0.7632,0.7632,0.7635,0.7639,0.7638,0.7619,0.7616,0.7613,0.7611,0.764,0.764,0.7658,0.7658,0.7659]},{"header":{"parameterUnit":"m.s-1","parameterCategory":1,"la1":30.2991,"la2":30.254,"lo1":-89.0895,"lo2":-89.0444,"dy":0.0017,"dx":0.0017,"nx":28,"ny":28,"refTime":"2023-03-27T15:00:00:Z","depth":0,"parameterNumber":3,"parameterNumberName":"V-component_of_WINDS"},"data":[0,0,0,0,0,0,0,0,0,0,0,0,0,0,0,0,0,0,0,0,0,0,0,0,0,0,0,0,0,0,0,0,0,0,0,0,0,0,0,0,0,0,0,0,0,0,0,0,0,0,0,0,0,0,0,0,0,0,3.3396,3.3397,0,3.3489,3.349,3.3491,3.3497,3.3496,3.3495,3.3494,3.3587,3.359,3.3594,0,0,0,0,0,0,0,0,0,0,0,0,0,3.3222,3.3225,3.3396,3.3397,3.3398,3.3489,3.349,3.3491,3.3498,3.3496,3.3495,3.3494,3.3586,3.359,3.3594,0,0,0,0,0,0,0,0,0,0,0,0,0,3.3304,3.3226,3.3396,3.3412,3.3415,3.3488,3.349,3.3492,3.3498,3.3496,3.3495,3.3493,3.3585,3.359,3.3595,3.3657,0,0,3.361,3.3613,0,0,0,0,0,0,0,0,3.33,3.3311,3.3409,3.3411,3.3414,3.348,3.3463,3.3547,3.3498,3.3466,3.3494,3.3492,3.3552,3.356,3.3581,3.3662,3.3666,3.3611,3.3614,3.3616,3.3618,0,0,0,0,0,0,0,3.3294,3.3307,3.3433,3.341,3.3413,3.3414,3.3424,3.3479,3.3517,3.3469,3.347,3.3481,3.3554,3.3576,3.3583,3.3667,3.3611,3.3615,3.3618,3.362,3.3804,3.3806,0,0,0,0,0,0,3.3285,3.3302,3.343,3.3435,3.3352,3.3419,3.343,3.346,3.3516,3.3523,3.3482,3.3481,3.3568,3.3577,3.3586,3.3664,3.3616,3.3621,3.3624,3.3802,3.3804,3.3806,0,0,0,0,0,0,3.3282,3.3297,3.3426,3.3369,3.3385,3.3424,3.3458,3.3463,3.3485,3.3526,3.3533,3.3498,3.3567,3.3579,3.364,3.3667,3.3623,3.3628,3.38,3.3803,3.3805,3.3819,0,0,0,0,0,0,3.3277,3.3295,3.332,3.3369,3.3389,3.3479,3.3459,3.3466,3.3495,3.3494,3.3543,3.3549,3.3567,3.3632,3.3645,3.3673,3.3632,3.3798,3.3801,3.3805,3.3816,3.3822,3.3826,0,0,0,0,0,3.327,3.3319,3.3321,3.3337,3.342,3.348,3.3491,3.3511,3.3497,3.3522,3.3548,3.3548,3.3662,3.3638,3.3653,3.3683,3.3796,3.38,3.3804,3.3814,3.382,3.3826,0,0,0,0,0,0,3.3271,3.3326,3.3329,3.3395,3.3433,3.3481,3.3513,3.3517,3.3559,3.3556,3.3578,3.3589,3.3649,3.3672,3.3645,3.3747,3.3727,3.3735,3.373,3.3736,3.3741,3.3735,3.3636,0,0,0,0,0,3.3279,3.3324,3.3369,3.3424,3.3443,3.3475,3.3501,3.3513,3.3553,3.3569,3.3599,3.3637,3.3681,3.371,3.3753,3.3819,3.383,3.3847,3.3852,3.3856,3.3862,3.3899,3.3907,3.382,3.382,3.3819,0,0,3.3296,3.3331,3.3358,3.3425,3.3455,3.3501,3.3488,3.3536,3.357,3.3576,3.3635,3.3659,3.3703,3.3766,3.3796,3.3787,3.3889,3.3862,3.3864,3.3868,3.3904,3.3912,3.392,3.3822,3.3822,3.3821,0,0,3.335,3.3381,3.343,3.3462,3.3509,3.353,3.3541,3.3589,3.3605,3.3666,3.3671,3.3711,3.3787,3.3818,3.3844,3.391,3.3912,3.3923,3.395,3.3986,3.3993,3.3999,3.4023,3.4031,3.3929,3.3929,3.3929,0,3.3364,3.3434,3.3455,3.3503,3.3532,3.3541,3.3591,3.3619,3.3678,3.3697,3.3687,3.3783,3.3813,3.3884,3.39,3.3921,3.3935,3.3918,3.399,3.3997,3.4003,3.4026,3.4034,3.393,3.393,3.393,3.393,0,3.3449,3.3497,3.3531,3.3588,3.3621,3.367,3.3698,3.3729,3.3738,3.376,3.3821,3.3857,3.3908,3.3926,3.3935,3.3999,3.3992,3.3986,3.3967,3.4012,3.4034,3.4043,3.3932,3.3931,3.3931,3.3931,0,0,3.3506,3.3575,3.3587,3.3613,3.3666,3.3703,3.3752,3.3803,3.3829,3.3868,3.391,3.3974,3.3969,3.3998,3.4011,3.4042,3.4093,3.4032,3.4034,3.4042,3.4165,3.417,3.418,3.4094,3.4096,3.4097,3.4162,0,3.3565,3.3654,3.3675,3.3751,3.3795,3.3804,3.3847,3.3884,3.3905,3.3946,3.3969,3.4015,3.4005,3.4022,3.4054,3.408,3.4118,3.4075,3.4133,3.4134,3.4122,3.4191,3.4196,3.4255,3.417,3.4172,3.4173,0,3.3647,3.369,3.3771,3.3818,3.3838,3.3876,3.3924,3.3963,3.4004,3.4018,3.4051,3.4061,3.4112,3.409,3.416,3.4131,3.4156,3.4172,3.4175,3.4181,3.4156,3.4199,3.4274,3.4283,3.4186,3.4185,3.4184,0,3.368,3.3758,3.3817,3.3839,3.3896,3.3923,3.3947,3.3988,3.4017,3.4059,3.4078,3.4125,3.415,3.4186,3.4208,3.419,3.4277,3.4257,3.4289,3.4289,3.4307,3.4306,3.4387,3.4322,3.4322,3.4322,3.4322,0,3.3745,3.3794,3.3833,3.3869,3.3924,3.3947,3.4001,3.4025,3.4061,3.4101,3.4111,3.4149,3.4176,3.4217,3.4234,3.429,3.4301,3.4313,3.4317,3.4313,3.4311,3.4329,3.4326,3.4324,3.4324,3.4323,3.4323,0,3.3792,3.382,3.3884,3.3933,3.3946,3.3985,3.4026,3.4061,3.4084,3.4135,3.4148,3.4183,3.4232,3.4257,3.4318,3.4329,3.4392,3.4394,3.4378,3.438,3.4411,3.4408,3.4508,3.4522,3.4447,3.4448,3.4448,0,3.3831,3.3869,3.3923,3.3951,3.3977,3.4022,3.4053,3.4077,3.4108,3.4158,3.4187,3.4237,3.4278,3.4356,3.4386,3.4432,3.4435,3.4467,3.4442,3.4437,3.4436,3.4434,3.4438,3.4471,3.4472,3.4473,3.4473,0,3.3899,3.3911,3.3955,3.4004,3.404,3.408,3.4118,3.4141,3.4171,3.4205,3.4256,3.4288,3.4351,3.44,3.4449,3.4473,3.4478,3.4481,3.4491,3.4486,3.4476,3.4483,3.4391,3.4478,3.4478,3.4477,3.4477,3.4477,3.3943,3.3978,3.4021,3.407,3.4102,3.4138,3.4174,3.4201,3.4244,3.4298,3.4309,3.4363,3.4404,3.447,3.4496,3.4538,3.4532,3.4546,3.455,3.4553,3.4555,3.4469,3.4547,3.4547,3.4547,3.4547,3.4547,0,3.4011,3.404,3.4085,3.414,3.4178,3.418,3.4223,3.4255,3.4302,3.4341,3.4381,3.444,3.4488,3.4522,3.457,3.4597,3.4601,3.4609,3.4608,3.4614,3.4557,3.4544,3.4606,3.4606,3.4606,3.4606,3.4606,3.4606,3.4051,3.411,3.4128,3.4203,3.423,3.4284,3.4309,3.4342,3.4373,3.4438,3.4479,3.4501,3.4537,3.4589,3.4633,3.4642,3.4659,3.4668,3.4677,3.4624,3.4617,3.4611,3.4599,3.4671,3.4671,3.4729,3.473,3.473]}]]